Flag for Norway

Past Weather in 80°09'32.6"N, 36°35'45.6"E, Norway — Yesterday and Last 2 Weeks

Currently: 46 °F. Sunny. (Weather station: Svalbard Lufthavn, Norway). See more current weather

Past Weather in 80°09'32.6"N, 36°35'45.6"E — Graph

°F

80°09'32.6"N, 36°35'45.6"E Temperature Yesterday

Maximum temperature yesterday: 54 °F (at 9:50 am)
Minimum temperature yesterday: 45 °F (at 3:20 am)
Average temperature yesterday: 49 °F

High & Low Weather Summary for the Past Weeks

 TemperatureHumidityPressure
High54 °F (Jun 18, 5:50 pm)93% (Jun 12, 12:20 am)30.30 "Hg (Jun 12, 12:20 am)
Low36 °F (Jun 9, 1:50 am)33% (Jun 21, 9:50 am)29.65 "Hg (Jun 11, 12:50 pm)
Average43 °F66%29.96 "Hg
* Reported Jun 7 8:20 am — Jun 22 8:20 am, 80°09'32.6"N, 36°35'45.6"E. Weather by CustomWeather, © 2024

Note: Actual official high and low records may vary slightly from our data, if they occured in-between our weather recording intervals... More about our weather records

80°09'32.6"N, 36°35'45.6"E Weather History for the Previous 24 Hours

Scroll right to see more
 ConditionsComfort  
Time TempWeatherWind HumidityBarometerVisibility
8:20 am
Sat, Jun 22
46 °FSunny.7 mph66%29.92 "Hg10 mi
7:50 am46 °FSunny.6 mph66%29.92 "Hg10 mi
7:20 am45 °FSunny.8 mph71%29.92 "Hg10 mi
6:50 am46 °FSunny.7 mph66%29.92 "Hg10 mi
6:20 am46 °FSunny.8 mph66%29.92 "Hg10 mi
5:50 am46 °FSunny.9 mph66%29.92 "Hg10 mi
5:20 am45 °FSunny.8 mph71%29.92 "Hg10 mi
4:50 am45 °FSunny.9 mph71%29.92 "Hg10 mi
4:20 am45 °FSunny.9 mph71%29.92 "Hg10 mi
3:50 am45 °FSunny.8 mph71%29.92 "Hg10 mi
3:20 am45 °FSunny.9 mph66%29.92 "Hg10 mi
2:50 am46 °FSunny.9 mph66%29.92 "Hg10 mi
2:20 am45 °FSunny.12 mph66%29.92 "Hg10 mi
1:50 am45 °FSunny.12 mph66%29.92 "Hg10 mi
1:20 am45 °FSunny.10 mph66%29.92 "Hg10 mi
12:50 am45 °FSunny.10 mph71%29.95 "Hg10 mi
12:20 am46 °FSunny.12 mph66%29.95 "Hg10 mi
11:50 pm
Fri, Jun 21
45 °FSunny.13 mph71%29.95 "Hg10 mi
11:20 pm45 °FSunny.13 mph71%29.95 "Hg10 mi
10:50 pm45 °FSunny.12 mph66%29.95 "Hg10 mi
10:20 pm46 °FSunny.15 mph66%29.95 "Hg10 mi
9:50 pm48 °FSunny.14 mph62%29.95 "Hg10 mi
9:23 pm50 °FSunny.15 mph54%29.95 "Hg10 mi
8:50 pm48 °FPassing clouds.9 mph62%29.95 "HgN/A
8:20 pm50 °FPassing clouds.8 mph58%29.95 "HgN/A
7:50 pm50 °FPassing clouds.9 mph54%29.95 "HgN/A
7:20 pm50 °FSunny.12 mph54%29.95 "Hg10 mi
6:50 pm50 °FSunny.3 mph54%29.95 "Hg10 mi
6:20 pm48 °FSunny.16 mph58%29.92 "Hg10 mi
5:50 pm50 °FSunny.18 mph54%29.92 "Hg10 mi
5:20 pm50 °FSunny.18 mph54%29.92 "Hg10 mi
4:50 pm50 °FSunny.16 mph54%29.92 "Hg10 mi
4:20 pm50 °FPassing clouds.9 mph50%29.92 "HgN/A
3:50 pm50 °FPassing clouds.17 mph50%29.92 "HgN/A
3:20 pm52 °FSunny.15 mph47%29.92 "Hg10 mi
2:50 pm50 °FSunny.15 mph50%29.92 "Hg10 mi
2:20 pm50 °FSunny.18 mph47%29.92 "Hg10 mi
1:50 pm50 °FSunny.20 mph40%29.95 "Hg10 mi
1:20 pm52 °FSunny.18 mph41%29.95 "Hg10 mi
12:50 pm50 °FSunny.20 mph47%29.95 "Hg10 mi
12:20 pm52 °FSunny.18 mph44%29.95 "Hg10 mi
11:50 am54 °FSunny.16 mph35%29.95 "Hg10 mi
11:20 am54 °FSunny.14 mph35%29.95 "Hg10 mi
10:50 am52 °FSunny.17 mph41%29.95 "Hg10 mi
10:20 am52 °FSunny.16 mph41%29.95 "Hg10 mi
9:50 am54 °FSunny.13 mph33%29.95 "Hg10 mi
9:20 am52 °FSunny.14 mph38%29.95 "Hg10 mi
Weather by CustomWeather, © 2024

See weather overview